FW0251 Weather Reports


time (UTC)temp
C
wind
direction
speed
KPH
gust
KPH
rain 1hr
cm
rain 24hr
cm
rain mn
cm
humidity
%
barometer
mb
20260510153039 26 254 1.6 3.2 0.00 0.00 0.00 48 1014.2
20260510151533 26 99 0.0 3.2 0.00 0.00 0.00 45 1014.2
20260510150024 25 240 0.0 3.2 0.00 0.00 0.00 48 1014.3
20260510144522 25 227 0.0 1.6 0.00 0.00 0.00 49 1014.2
20260510143021 24 253 0.0 3.2 0.00 0.00 0.00 53 1014.2
20260510141515 23 316 0.0 3.2 0.00 0.00 0.00 56 1014.2
20260510140011 23 28 0.0 3.2 0.00 0.00 0.00 60 1014.1
20260510134509 22 276 0.0 3.2 0.00 0.00 0.00 66 1014.2
20260510133008 21 257 0.0 3.2 0.00 0.00 0.00 67 1014.2
20260510131600 20 226 0.0 3.2 0.00 0.00 0.00 72 1014.1
20260510130056 18 165 0.0 1.6 0.00 0.00 0.00 73 1014.3
20260510124605 17 158 0.0 1.6 0.00 0.00 0.00 72 1014.2
20260510123048 16 158 0.0 0.0 0.00 0.00 0.00 55 1013.9
20260510121545 14 158 0.0 0.0 0.00 0.00 0.00 35 1013.8
20260510120041 12 158 0.0 0.0 0.00 0.00 0.00 35 1013.4
20260510114541 11 158 0.0 0.0 0.00 0.00 0.00 38 1013.3
20260510113041 11 158 0.0 0.0 0.00 0.00 0.00 40 1013.2
20260510111538 10 158 0.0 0.0 0.00 0.00 0.00 41 1013.0
20260510110041 10 158 0.0 0.0 0.00 0.00 0.00 44 1012.9
20260510104534 10 158 0.0 0.0 0.00 0.00 0.00 45 1012.6
20260510103032 10 158 0.0 0.0 0.00 0.00 0.00 44 1012.4
20260510101534 10 158 0.0 0.0 0.00 0.00 0.00 44 1012.2
20260510100028 11 158 0.0 0.0 0.00 0.00 0.00 45 1012.0
20260510094527 11 158 0.0 0.0 0.00 0.00 0.00 44 1011.9
20260510093024 11 158 0.0 0.0 0.00 0.00 0.00 43 1011.8
20260510091528 11 158 0.0 0.0 0.00 0.00 0.00 45 1011.7
20260510090025 12 158 0.0 0.0 0.00 0.00 0.00 44 1011.4
20260510084517 12 158 0.0 0.0 0.00 0.00 0.00 44 1011.4
20260510083016 12 158 0.0 0.0 0.00 0.00 0.00 44 1011.3
20260510081514 12 158 0.0 0.0 0.00 0.00 0.00 45 1011.1
20260510080011 12 158 0.0 0.0 0.00 0.00 0.00 46 1011.0
20260510074510 13 158 0.0 0.0 0.00 0.00 0.00 47 1011.0
20260510073010 13 158 0.0 0.0 0.00 0.00 0.00 47 1011.0
20260510071506 13 158 0.0 0.0 0.00 0.00 0.00 45 1011.1
20260510070003 13 158 0.0 0.0 0.00 0.00 0.00 47 1011.1
20260510064507 13 158 0.0 0.0 0.00 0.00 0.00 49 1011.1
20260510063100 14 158 0.0 0.0 0.00 0.00 0.00 51 1011.0
20260510061557 14 158 0.0 0.0 0.00 0.00 0.00 52 1010.9
20260510060055 15 158 0.0 0.0 0.00 0.00 0.00 54 1011.0
20260510054553 15 158 0.0 0.0 0.00 0.00 0.00 56 1011.0
20260510053051 15 158 0.0 0.0 0.00 0.00 0.00 58 1011.0
20260510051554 15 158 0.0 0.0 0.00 0.00 0.00 61 1011.0
20260510050047 15 158 0.0 0.0 0.00 0.00 0.00 63 1011.0
20260510044547 16 158 0.0 0.0 0.00 0.00 0.00 65 1010.9
20260510043043 16 158 0.0 0.0 0.00 0.00 0.00 66 1010.9
20260510041542 16 158 0.0 0.0 0.00 0.00 0.00 67 1010.8
20260510040040 16 158 0.0 0.0 0.00 0.00 0.00 69 1010.8
20260510034545 16 158 0.0 0.0 0.00 0.00 0.00 70 1010.6
20260510033045 16 158 0.0 0.0 0.00 0.00 0.00 71 1010.6
20260510031540 16 158 0.0 0.0 0.00 0.00 0.00 71 1010.5
20260510030038 16 158 0.0 0.0 0.00 0.00 0.00 72 1010.5
20260510024538 17 158 0.0 0.0 0.00 0.00 0.00 72 1010.4
20260510023037 17 157 0.0 0.0 0.00 0.00 0.00 72 1010.3
20260510021537 17 158 0.0 0.0 0.00 0.00 0.00 72 1010.0
20260510020036 17 158 0.0 1.6 0.00 0.00 0.00 72 1009.8
20260510014536 17 158 0.0 1.6 0.00 0.00 0.00 72 1009.7
20260510013035 17 158 0.0 0.0 0.00 0.00 0.00 72 1009.5
20260510011535 17 158 0.0 3.2 0.00 0.00 0.00 72 1009.3
20260510010038 18 158 0.0 1.6 0.00 0.00 0.00 72 1009.2
20260510004534 18 158 0.0 1.6 0.00 0.00 0.00 71 1008.9
20260510003034 19 158 0.0 0.0 0.00 0.00 0.00 69 1008.8
20260510001533 20 158 0.0 0.0 0.00 0.00 0.00 67 1008.6
20260510000037 20 158 0.0 0.0 0.00 0.00 0.00 65 1008.5
20260509234540 21 158 0.0 0.0 0.00 0.00 0.00 63 1008.3
20260509233031 22 158 0.0 0.0 0.00 0.00 0.00 61 1008.3
20260509231530 22 158 0.0 1.6 0.00 0.00 0.00 56 1008.3
20260509230031 22 158 0.0 1.6 0.00 0.00 0.00 55 1008.4
20260509224543 23 158 0.0 1.6 0.00 0.00 0.00 52 1008.3
20260509223029 23 132 0.0 4.8 0.00 0.00 0.00 52 1008.3
20260509221531 23 160 0.0 3.2 0.00 0.00 0.00 52 1008.3
20260509220028 23 139 0.0 4.8 0.00 0.00 0.00 52 1008.1
20260509214528 23 266 0.0 6.4 0.00 0.00 0.00 52 1008.2
20260509213027 23 192 0.0 3.2 0.00 0.00 0.00 51 1008.0
20260509211527 23 61 0.0 4.8 0.00 0.00 0.00 49 1008.2
20260509210026 23 146 0.0 4.8 0.00 0.00 0.00 49 1007.9
20260509204526 23 279 0.0 4.8 0.00 0.00 0.00 50 1007.8
20260509203031 23 174 0.0 4.8 0.00 0.00 0.00 49 1007.7
20260509201524 24 5 1.6 6.4 0.00 0.00 0.00 47 1007.7
20260509200022 23 254 0.0 8.0 0.00 0.00 0.00 50 1007.8
20260509194522 23 254 1.6 6.4 0.00 0.00 0.00 52 1008.2
20260509193019 23 165 0.0 6.4 0.00 0.00 0.00 50 1008.3
20260509191518 23 68 1.6 6.4 0.00 0.00 0.00 50 1008.7
20260509190014 23 278 1.6 11.3 0.00 0.00 0.00 48 1008.7
20260509184519 23 25 3.2 11.3 0.00 0.00 0.00 51 1009.0
20260509183009 22 219 3.2 11.3 0.00 0.00 0.00 52 1009.1
20260509181507 22 173 1.6 6.4 0.00 0.00 0.00 55 1009.2
20260509180005 22 9 3.2 6.4 0.00 0.00 0.00 56 1009.6
20260509174506 22 94 1.6 4.8 0.00 0.00 0.00 58 1009.7
20260509173004 22 108 3.2 8.0 0.00 0.00 0.00 58 1009.7
20260509171502 22 210 3.2 8.0 0.00 0.00 0.00 57 1009.8
20260509170002 22 261 1.6 14.5 0.00 0.00 0.00 55 1010.0
20260509164559 22 5 1.6 6.4 0.00 0.00 0.00 57 1010.2
20260509163056 22 343 1.6 9.7 0.00 0.00 0.00 59 1010.4
20260509161601 22 234 3.2 14.5 0.00 0.00 0.00 58 1010.5
20260509160050 21 229 3.2 11.3 0.00 0.00 0.00 59 1010.5
20260509154546 21 194 3.2 11.3 0.00 0.00 0.00 61 1010.6